Regional Weather Roundup
Issued by NWS Raleigh/Durham, NC

Home | Current Version | Previous Version | Text Only | Print | Product List | Glossary On
Versions: 1 2 3 4 5 6 7 8 9 10 11 12 13 14 15 16 17 18 19 20 21 22 23 24 25 26 27 28 29 30 31 32 33 34 35 36 37 38 39 40 41 42 43 44 45 46 47 48 49 50
000
ASUS42 KRAH 181810
RWRRAH
NORTH CAROLINA WEATHER ROUNDUP
NATIONAL WEATHER SERVICE RALEIGH NC
100 PM EST WED JAN 18 2017

NOTE: "FAIR" INDICATES FEW OR NO CLOUDS BELOW 12,000 FEET WITH NO
SIGNIFICANT WEATHER AND/OR OBSTRUCTIONS TO VISIBILITY.

NCZ001-053-055-056-065-067-181900-
WESTERN NORTH CAROLINA

CITY           SKY/WX    TMP DP  RH WIND       PRES   REMARKS
ASHEVILLE      SUNNY     59  39  47 NW14G24   30.08F
JEFFERSON      SUNNY     51  35  54 NW21G31   30.01R
HICKORY        SUNNY     68  32  26 W8        30.00F
RUTHERFORDTON  SUNNY     71  26  18 NW15      30.01F
MOUNT AIRY     SUNNY     63  40  42 NW7       30.02F
BOONE          SUNNY     51  34  53 W15G29    30.03R
$$

NCZ021-022-025-041-071-084-088-181900-
CENTRAL NORTH CAROLINA

CITY           SKY/WX    TMP DP  RH WIND       PRES   REMARKS
CHARLOTTE      MOSUNNY   74  42  31 W12       29.99F
GREENSBORO     MOSUNNY   66  37  34 NW14G22   29.99F
WINSTON-SALEM  SUNNY     65  31  28 NW13G22   30.01F
RALEIGH-DURHAM MOSUNNY   70  42  36 N9G21     29.96F
FORT BRAGG     MOSUNNY   73  49  43 NW14      29.93F
FAYETTEVILLE   MOSUNNY   76  52  43 NW17      29.93F
BURLINGTON     SUNNY     67  38  34 W12G17    29.98F
LAURINBURG     SUNNY     76  52  43 NW16      29.95F
$$

NCZ011-015-027-028-043-044-047-080-103-181900-
NORTHEASTERN NORTH CAROLINA

CITY           SKY/WX    TMP DP  RH WIND       PRES   REMARKS
ROCKY MT-WILSO SUNNY     70  42  36 NW20G32   29.92F
GREENVILLE     SUNNY     70  50  49 NW12G18   29.91F
WASHINGTON     CLOUDY    70  54  56 NW9G20    29.88F
ELIZABETH CITY CLOUDY    59  46  62 N21       29.89R
MANTEO         CLOUDY    61  56  84 N13G25    29.87R
CAPE HATTERAS  CLOUDY    59  57  93 W10G16    29.86F FOG
$$

NCZ078-087-090-091-093-098-101-181900-
SOUTHEASTERN NORTH CAROLINA

CITY           SKY/WX    TMP DP  RH WIND       PRES   REMARKS
LUMBERTON      SUNNY     72  58  61 NW8       29.94F
GOLDSBORO      SUNNY     72  50  45 W12G24    29.89F
KINSTON        MOSUNNY   72  54  53 W12       29.91F
KENANSVILLE    CLOUDY    70  57  64 W12G18    29.92F
NEW BERN       CLOUDY    68  59  73 W10       29.90F
CHERRY POINT   CLOUDY    67  59  75 W17G25    29.89F
BEAUFORT       PTSUNNY   64  62  93 W10       29.89F
JACKSONVILLE   CLOUDY    67  62  84 W14G22    29.91F
WILMINGTON     CLOUDY    72  61  68 W14G24    29.92F
$$




USA.gov is the U.S. government's official web portal to all federal, state and local government web resources and services.